Regional Weather Roundup
Issued by NWS Grand Forks, ND

Home | Current Version | Previous Version | Text Only | Print | Product List | Glossary Off
Versions: 1 2 3 4 5 6 7 8 9 10 11 12 13 14 15 16 17 18 19 20 21 22 23 24 25 26 27 28 29 30 31 32 33 34 35 36 37 38 39 40 41 42 43 44 45 46 47 48 49 50

000
ASUS43 KFGF 141131
RWRFGF
PRAIRIE TO PINES  WEATHER ROUNDUP
NATIONAL WEATHER SERVICE EASTERN NORTH DAKOTA/GRAND FORKS ND
500 AM CST THU DEC 14 2017

 **SATELLITE DATA USED TO AUGMENT SKY COVER AT AUTOMATED STATIONS**
 *****  WEATHER ACROSS EASTERN NORTH DAKOTA  *****

CITY           SKY/WX    TMP DP  RH WIND       PRES   REMARKS
GRAND FORKS    CLOUDY    18  15  88 SW3       29.98F
GRAND FRKS AFB FLURRIES  21  18  86 N6        29.99R WCI  14
GRAND FRKS NWS   N/A     18 N/A N/A W6          N/A  WCI   9
DEVILS LAKE    FLURRIES  21  19  93 CALM      29.96S
FARGO          CLOUDY    19  15  84 CALM      30.00S
WAHPETON ARPT    N/A     19  16  86 CALM      30.01S
$$

 ***** WEATHER ACROSS CENTRAL AND WESTERN NORTH DAKOTA  *****

CITY           SKY/WX    TMP DP  RH WIND       PRES   REMARKS
BISMARCK       CLOUDY    31  30  96 NW6       29.98S
MINOT          CLOUDY    33  28  81 NW13      29.98R WCI  24
JAMESTOWN      CLOUDY    27  26  96 CALM      29.93F
MINOT AFB      CLOUDY    32  28  86 NW10      29.98R WCI  24
GARRISON         N/A     32  28  85 NW15      29.98R WCI  22
WILLISTON      CLOUDY    34  27  75 N14G25    30.09R WCI  25
DICKINSON      CLOUDY    31  28  89 NW23      30.01R WCI  18
HETTINGER      FLURRIES  32  28  85 NW23G33   30.04R WCI  19
$$

 *****  OTHER AIRPORT OBSERVATIONS IN OUR AREA  *****

CITY           SKY/WX    TMP DP  RH WIND       PRES   REMARKS
WALHALLA       FAIR      21  21 100 NW8       29.98F WCI  12
GRAFTON AIRPOR PTSUNNY   21  18  86 NW7       30.01S WCI  13
VALLEY CITY AR FLURRIES  21  21 100 CALM      29.98R
CANDO          CLOUDY    23  23 100 CALM      29.98R
CAVALIER APRT  CLOUDY    21  18  86 NW8       29.98F WCI  12
GWINNER          N/A     23  19  86 CALM      29.98S
SHEYENNE NWR     N/A     20  17  87 SW2       29.95S
ROLLA          CLOUDY    27  27 100 N12       29.95R WCI  16
 ***** THE ABOVE OBSERVATIONS ARE NON NWS ARE NOT QUALITY
       CONTROLLED AND MAY MIS-REPORT RAIN FOR SNOW...
$$

  *****  WEATHER ACROSS NORTHERN MINNESOTA  *****

CITY           SKY/WX    TMP DP  RH WIND       PRES   REMARKS
FLAG ISLAND    LGT SNOW  10   7  85 CALM      29.92S
WARROAD        LGT SNOW  12   9  85 SW3       29.94S
ROSEAU         LGT SNOW  16  10  79 W5        29.95S WCI   9
HALLOCK        CLOUDY    19  16  86 W6        29.98S WCI  11
THF RVR FALLS  FLURRIES  14  10  85 W7        29.97R WCI   4
BAUDETTE       LGT SNOW  10   7  87 CALM      29.93S FOG
WASKISH        LGT SNOW  12  10  92 SW6       29.94S WCI   3
CROOKSTON      CLOUDY    16  14  93 W5        30.00R WCI   9
STEPHEN NDAWN    N/A     18  14  86 W6          N/A  WCI   9
GREENBUSH NDAW   N/A     16  12  86 W7          N/A  WCI   6
$$
  *****  WEATHER ACROSS CENTRAL AND WEST MINNESOTA  *****

CITY           SKY/WX    TMP DP  RH WIND       PRES   REMARKS
FOSSTON        FLURRIES  12  10  92 SW6       29.95F WCI   3
BEMIDJI        FLURRIES  12   9  89 W8        29.93F WCI   0
PARK RAPIDS    FLURRIES  12   8  84 NW8       29.94S WCI   0
ELBOW LAKE     CLOUDY    16  15  93 NW9       29.99S WCI   5
WADENA         FLURRIES  12  12 100 N7        29.95S WCI   2
DETROIT LAKES  CLOUDY    14  14 100 CALM      29.97F
MOORHEAD       CLOUDY    18  12  79 CALM      30.00F
FERGUS FALLS   CLOUDY    16  12  86 N5        30.03R WCI   9
MORRIS MN      CLOUDY    19  16  86 N9        29.98S WCI   9
STAPLES        CLOUDY    14  10  85 W8        29.96S WCI   3
$$
  *****  WEATHER ELSEWHERE ACROSS MINNESOTA  *****

CITY           SKY/WX    TMP DP  RH WIND       PRES   REMARKS
DULUTH         CLOUDY    13  10  88 NW5       29.91F WCI   5
INTRNTL FALLS  LGT SNOW  12   7  80 W6        29.92F WCI   3
ELY            CLOUDY    12  10  92 CALM      29.90S
CLOQUET        CLOUDY    16  12  86 W6        29.92F WCI   7
WHEATON        CLOUDY    19  18  93 NW5       30.02F WCI  13
BRAINERD       CLOUDY    15  11  83 NW7       29.97S WCI   5
HIBBING        CLOUDY    14  11  87 W5        29.92S WCI   6
ALEXANDRIA     CLOUDY    17  14  88 W7        29.96S WCI   8
SAINT CLOUD    CLOUDY    15  12  88 CALM      29.98F
MINNEAPOLIS    CLOUDY    19  15  84 NW6       30.01S WCI  11
$$

  *****  WEATHER ACROSS SOUTH DAKOTA  *****

CITY           SKY/WX    TMP DP  RH WIND       PRES   REMARKS
SIOUX FALLS    FRZ DRZL  28  26  92 E5        29.99R WCI  23
BROOKINGS      CLOUDY    27  25  93 CALM      29.97S
WATERTOWN      CLOUDY    26  25  96 W3        29.95S
HURON          MOCLDY    28  24  85 NW9       30.00R WCI  19
SISSETON         N/A     21  18  88 E6        29.98S WCI  13
ABERDEEN       CLOUDY    26  26 100 S5        29.99S WCI  20
MITCHELL       MOCLDY    33  26  75 NW10      30.01S WCI  25
PIERRE         LGT RAIN  37  34  89 NW14      29.99F
MOBRIDGE       CLOUDY    30  27  88 CALM      29.96S
RAPID CITY     CLOUDY    38  25  59 NW28G36   30.06R
$$

  *****  SOME WEATHER IN NEARBY STATES *****

CITY           SKY/WX    TMP DP  RH WIND       PRES   REMARKS
GLASGOW MT     CLOUDY    33  26  75 NW18      30.21S WCI  22
GREAT FALLS MT FAIR      26  21  81 SW12      30.38F WCI  16
CHEYENNE WY    MOCLDY    26  23  88 NW9       30.14F WCI  17
SCOTTSBLUFF NE MOCLDY    35  23  61 NW15      30.15R
OMAHA NE       CLOUDY    35  27  72 NW5       30.03R
DES MOINES IA  CLOUDY    26  17  68 N5        30.01S WCI  20
DAVENPORT IA   CLOUDY    22  14  71 N6        30.02R WCI  14
CHICAGO IL     MOCLDY    18  10  71 NW12      29.95R WCI   5
EAU CLAIRE WI  CLOUDY     7   3  84 S5        30.00R WCI  -2
LA CROSSE WI   FAIR       5   3  91 N3        30.02R
$$

  *****  SOME NATIONAL WEATHER *****

CITY           SKY/WX    TMP DP  RH WIND       PRES   REMARKS
LA GUARDIA NY  LGT SNOW  27  23  85 NE7       29.55R FOG     WCI  19
RALEIGH NC     FAIR      33  20  58 SW9       29.73R
ATLANTA GA     FAIR      40  29  64 W10       29.85R
NEW ORLEANS LA MOCLDY    44  42  93 CALM      29.98S
OKLAHOMA CITY  MOCLDY    43  26  51 N10       30.01R
ALBUQUERQUE NM FAIR      29   7  39 N7        30.01R WCI  22
SALT LAKE CITY MOCLDY    27  25  92 CALM      30.36R FOG
LOS ANGELES CA FAIR      51  32  48 E5        29.96S
BOISE ID       CLOUDY    25  22  88 S12       30.51S WCI  14
SEATTLE WA     FAIR      39  36  89 N10       30.35F
$$

*** WEATHER ACROSS MANITOBA...SASKATCHEWAN AND ONTARIO ***
                ***ONTARIO***

CITY           SKY/WX    TMP DP  RH WIND       PRES   REMARKS
GERALDTON      CRYSTALS  -9 -15  77 W5        29.85S WCI -21
THUNDER BAY    PTCLDY    -6  -9  84 W7        29.96S WCI -20
SIOUX LOOKOUT  MOCLDY    -9 -15  77 S3        29.88S
TORONTO        PTCLDY     3  -2  78 NW12      29.74R WCI -13
BIG TROUT LK   CLOUDY   -15 -18  84 W2        29.87S
PICKLE LAKE    MOCLDY    -9 -15  77 W6        29.84  WCI -23
DRYDEN         CLOUDY     1  -2  85 S3        29.87F
KENORA         LGT SNOW   7   3  85 W3        29.89F FOG
$$
                *** MANITOBA***

CITY           SKY/WX    TMP DP  RH WIND       PRES   REMARKS
BRANDON        FLURRIES  19  18  93 NW3       30.00R
DAUPHIN        CLOUDY    19  18  93 N9        30.06R WCI   9
ISLAND LAKE    CLOUDY     5   0  78 NW6       29.93R WCI  -6
PILOT MOUND      N/A     19  18  93 N5          N/A  WCI  13
THE PAS        FLURRIES  16  10  79 NW12      30.06R WCI   3
THOMPSON       FLURRIES   0  -4  85 NW3       30.00F
WINNIPEG       FLURRIES  16  14  93 NW8       29.98R WCI   5
LYNN LAKE      FLURRIES   7   5  92 NW10      30.02S WCI  -8
CHURCHILL      LGT SNOW -11 -17  77 NW20G25   30.05S BLWGSNOWWCI -36
GILLAM         FLURRIES  -6  -9  84 N8        30.00S WCI -21
$$
                ***SASKATCHEWAN***

CITY           SKY/WX    TMP DP  RH WIND       PRES   REMARKS
ESTEVAN        MOCLDY    30  23  74 NW23G31   30.07R WCI  17
KINDERSLEY     PTCLDY    28  25  86 W9        30.25F WCI  20
LLOYDMINSTER   CLEAR     25  21  86 NW12      30.21F WCI  14
PRINCE ALBERT  FLURRIES  30  28  93 W12       30.12F WCI  21
REGINA         CLOUDY    30  27  86 NW18      30.14R WCI  18
YORKTON        FLURRIES  25  21  86 NW10G17   30.06S WCI  15
N. BATTLEFORD  CLEAR     27  23  86 W13G18    30.21F WCI  16
LA RONGE       MOCLDY    21  18  86 NW7       30.13R WCI  13
SASKATOON      MOCLDY    27  23  86 W8        30.18F WCI  18
SWIFT CURRENT  CLOUDY    28  25  86 W13G18    30.22R WCI  18
$$
NOTE: THESE ARE AUTOMATED STATIONS WITH LIMITED QUALITY CONTROL
      "FAIR" INDICATES FEW OR NO CLOUDS BELOW 12,000 FEET WITH NO
      SIGNIFICANT WEATHER AND/OR OBSTRUCTIONS TO VISIBILITY.
      SKY/WX - SKY CONDITION AND SIGNIFICANT WEATHER.
      TMP - AIR TEMPERATURE.    DP   - DEWPOINT TEMPERATURE.
      RH  - RELATIVE HUMIDITY.  PRES - PRESSURE.
      HX  - HEAT INDEX.         WCI  - WIND CHILL INDEX.
$



USA.gov is the U.S. government's official web portal to all federal, state and local government web resources and services.